Jackson, MI

5:18 PM EST on November 11, 2019 (GMT -0500)
Jackson County-Reynolds

Weather History for KJXN - October, 2019

Change the Weather History Date:

Wednesday, October 16, 2019

  Actual Average Record
Temperature  
Mean Temperature 52 °F 50 °F  
Max Temperature 55 °F 60 °F 85 °F (1963)
Min Temperature 43 °F 40 °F 25 °F (1977)
Degree Days  
Heating Degree Days 14 15  
Month to date heating degree days 172 203  
Since 1 July heating degree days 228 391  
Cooling Degree Days 0 0  
Month to date cooling degree days 13 3  
Year to date cooling degree days 663 589  
Growing Degree Days 2 (Base 50)    
Moisture  
Dew Point 42 °F    
Average Humidity 80    
Maximum Humidity 93    
Minimum Humidity 66    
Precipitation  
Precipitation 0.14 in 0.08 in 1.98 in (2001)
Month to date precipitation 1.59 1.47  
Year to date precipitation 28.58 25.87  
Sea Level Pressure  
Sea Level Pressure 29.70 in    
Wind  
Wind Speed 12 mph ()    
Max Wind Speed 22 mph    
Max Gust Speed 39 mph    
Visibility 8.3 miles    
Events Rain    
T = Trace of Precipitation, MM = Missing Value Source: Averaged Metar Reports

Daily Weather History Graph

Daily Weather History Graph

Search for Another Location

Airport or City:

Astronomy

Oct. 16, 2019 Rise Set
Actual Time 7:51 AM EDT 6:54 PM EDT
Civil Twilight 7:23 AM EDT 7:22 PM EDT
Nautical Twilight 6:50 AM EDT 7:55 PM EDT
Astronomical Twilight 6:18 AM EDT 8:27 PM EDT
Moon 8:45 PM EDT (10/16) 10:23 AM EDT (10/16)
Length of Visible Light 11h 59m
Length of Day
11h 03m
Waning Gibbous, 93% of the Moon is Illuminated
Oct 16
Waning Gibbous
Oct 21
Last Quarter
Oct 27
New
Nov 4
First Quarter
Nov 12
Full

Hourly Weather History & Observations

Time (EDT) Temp. Windchill Dew Point Humidity Pressure Visibility Wind Dir Wind Speed Gust Speed Precip Events Conditions
12:30 AM 60.1 °F - 55.0 °F 83% 29.64 in 9.0 mi SW 13.8 mph 23.0 mph 0.00 in Rain Light Rain
12:48 AM 57.0 °F - 53.1 °F 87% 29.64 in 3.0 mi West 16.1 mph 39.1 mph 0.04 in Rain Rain
12:56 AM 55.9 °F - 54.0 °F 93% 29.65 in 8.0 mi WSW 12.7 mph 31.1 mph 0.04 in Rain Light Rain
1:19 AM 55.0 °F - - N/A% 29.66 in 6.0 mi West 17.3 mph 25.3 mph 0.01 in Rain Rain
1:39 AM 52.0 °F - - N/A% 29.67 in 4.0 mi West 15.0 mph 28.8 mph 0.05 in Rain Rain
1:56 AM 50.0 °F - - N/A% 29.68 in 4.0 mi West 12.7 mph 21.9 mph 0.09 in Rain Rain
2:07 AM 50.0 °F - - N/A% 29.68 in 10.0 mi WSW 8.1 mph 19.6 mph 0.00 in Rain Light Rain
2:16 AM 50.0 °F - - N/A% 29.67 in 10.0 mi West 10.4 mph - 0.00 in   Overcast
2:56 AM 48.9 °F - - N/A% 29.69 in 10.0 mi WSW 8.1 mph - 0.00 in   Overcast
3:23 AM 48.9 °F - - N/A% 29.67 in 9.0 mi WSW 6.9 mph - N/A   Overcast
3:56 AM 48.0 °F - - N/A% 29.67 in 10.0 mi WSW 13.8 mph 24.2 mph N/A   Mostly Cloudy
4:56 AM 46.0 °F 41.9 °F - N/A% 29.66 in 10.0 mi WSW 8.1 mph - N/A   Mostly Cloudy
5:56 AM 46.0 °F 41.4 °F - N/A% 29.65 in 10.0 mi WSW 9.2 mph - N/A   Overcast
6:53 AM 46.4 °F 41.9 °F - N/A% 29.64 in 10.0 mi West 9.2 mph - N/A   Overcast
6:56 AM 46.0 °F 40.6 °F - N/A% 29.64 in 10.0 mi West 11.5 mph - N/A   Overcast
7:56 AM 45.0 °F 38.9 °F 42.1 °F 90% 29.64 in 10.0 mi WSW 12.7 mph 21.9 mph N/A   Overcast
8:56 AM 45.0 °F 38.2 °F 39.9 °F 82% 29.63 in 10.0 mi WSW 15.0 mph 23.0 mph N/A   Overcast
9:25 AM 44.1 °F 37.7 °F 39.9 °F 85% 29.63 in 8.0 mi WSW 12.7 mph - 0.00 in Rain Light Rain
9:49 AM 44.1 °F 37.7 °F 41.0 °F 89% 29.63 in 2.5 mi SW 12.7 mph 23.0 mph 0.00 in   Overcast
9:56 AM 44.1 °F 37.4 °F 41.0 °F 89% 29.63 in 4.0 mi SW 13.8 mph 19.6 mph 0.00 in   Overcast
10:03 AM 44.1 °F 37.7 °F 42.1 °F 93% 29.63 in 1.5 mi SW 12.7 mph - N/A   Overcast
10:47 AM 45.0 °F 38.5 °F 43.0 °F 93% 29.63 in 1.5 mi WSW 13.8 mph 25.3 mph 0.00 in   Overcast
10:56 AM 45.0 °F 38.5 °F 43.0 °F 93% 29.63 in 1.5 mi WSW 13.8 mph 23.0 mph 0.00 in   Overcast
11:03 AM 46.0 °F 39.9 °F 43.0 °F 89% 29.62 in 10.0 mi WSW 13.8 mph - N/A   Overcast
11:56 AM 46.9 °F - 43.0 °F 86% 29.62 in 5.0 mi WSW 13.8 mph 26.5 mph N/A   Overcast
12:40 PM 48.0 °F - 43.0 °F 83% 29.63 in 10.0 mi West 11.5 mph 26.5 mph N/A   Overcast
12:56 PM 48.0 °F - 43.0 °F 83% 29.65 in 10.0 mi West 16.1 mph 26.5 mph N/A   Overcast
1:05 PM 48.0 °F - 43.0 °F 83% 29.65 in 10.0 mi West 13.8 mph 24.2 mph N/A   Overcast
1:56 PM 48.0 °F - 43.0 °F 83% 29.67 in 8.0 mi West 10.4 mph - 0.00 in   Overcast
2:56 PM 48.9 °F - 43.0 °F 80% 29.68 in 10.0 mi West 16.1 mph 28.8 mph 0.01 in   Overcast
3:56 PM 50.0 °F - 41.0 °F 71% 29.70 in 10.0 mi West 16.1 mph 28.8 mph N/A   Overcast
4:56 PM 48.9 °F - 41.0 °F 74% 29.72 in 10.0 mi West 18.4 mph 28.8 mph N/A   Overcast
5:56 PM 48.9 °F - 39.9 °F 71% 29.75 in 10.0 mi West 10.4 mph 26.5 mph N/A   Overcast
6:05 PM 48.9 °F - 39.0 °F 69% 29.74 in 10.0 mi West 15.0 mph 25.3 mph N/A   Overcast
6:51 PM 48.2 °F - 37.4 °F 66% 29.76 in 10.0 mi WNW 12.7 mph 29.9 mph N/A   Overcast
6:56 PM 48.9 °F - 37.9 °F 66% 29.77 in 10.0 mi WNW 12.7 mph 31.1 mph N/A   Overcast
7:56 PM 48.0 °F - 39.0 °F 71% 29.81 in 10.0 mi West 16.1 mph 27.6 mph 0.00 in   Overcast
8:56 PM 46.0 °F 40.2 °F 37.9 °F 73% 29.83 in 10.0 mi WNW 12.7 mph 24.2 mph N/A   Mostly Cloudy
9:05 PM 46.0 °F 41.4 °F 37.9 °F 73% 29.82 in 10.0 mi WNW 9.2 mph 23.0 mph N/A   Overcast
9:37 PM 46.9 °F - 37.9 °F 71% 29.83 in 10.0 mi West 12.7 mph 26.5 mph N/A   Overcast
9:56 PM 46.0 °F 40.2 °F 37.0 °F 71% 29.85 in 10.0 mi WNW 12.7 mph 32.2 mph N/A   Overcast
10:25 PM 45.0 °F 38.9 °F 37.0 °F 74% 29.85 in 10.0 mi WNW 12.7 mph 21.9 mph N/A   Scattered Clouds
10:56 PM 44.1 °F 38.1 °F 37.0 °F 76% 29.87 in 10.0 mi West 11.5 mph 21.9 mph N/A   Partly Cloudy
11:56 PM 43.0 °F 36.8 °F 36.0 °F 76% 29.87 in 10.0 mi West 11.5 mph 24.2 mph N/A   Clear